Regional Weather Roundup
Issued by NWS

Home | Current Version | Previous Version | Graphics & Text | Print | Product List | Glossary On
Versions: 1 2 3 4 5 6 7 8 9 10 11 12 13 14 15 16 17 18 19 20 21 22 23 24 25 26 27 28 29 30 31 32 33 34 35 36 37 38 39 40 41 42 43 44 45 46 47 48 49 50
969
ASUS43 KDMX 200601
RWRIA

WEATHER ROUNDUP FOR IOWA
NATIONAL WEATHER SERVICE DES MOINES IA
100 AM CDT WED SEP 20 2017

NOTE: "FAIR" INDICATES FEW OR NO CLOUDS BELOW 12,000 FEET WITH NO
SIGNIFICANT WEATHER AND/OR OBSTRUCTIONS TO VISIBILITY.

* - THESE STATIONS ARE NOT NWS STATIONS...THUS NOT UNDER NWS
QUALITY CONTROL.  THEY ALSO DO NOT REPORT WEATHER SUCH
AS PRECIPITATION OR FOG.

IAZ001>003-012>014-020>022-031>034-043>046-200700-
   NORTHWEST IOWA

CITY           SKY/WX    TMP DP  RH WIND       PRES   REMARKS
CARROLL *      CLOUDY    75  68  78 S17G29    29.62S
CHEROKEE *     CLEAR     75  70  83 S18G26    29.57R
DENISON *      CLOUDY    75  70  83 S22G32    29.61S
LE MARS *      PTCLDY    75  64  69 NW21G41   29.60R
ORANGE CITY *  MOCLDY    70  63  78 NW18G33   29.63R
SHELDON *      CLOUDY    68  59  73 NW23G37   29.60R
SIOUX CITY     CLEAR     78  71  79 S15G31    29.53R HX  80
6HR MIN TEMP:  77; 6HR MAX TEMP:  82;

SPENCER        PTCLDY    74  67  78 S24G33    29.56R
6HR MIN TEMP:  74; 6HR MAX TEMP:  78;

STORM LAKE *   CLOUDY    75  68  78 S20G29    29.59R
$$

IAZ055>058-069>071-079>083-090>094-200700-
   SOUTHWEST IOWA

CITY           SKY/WX    TMP DP  RH WIND       PRES   REMARKS
ATLANTIC *     CLOUDY    77  70  78 S16G23    29.64S
AUDUBON *      CLOUDY    75  70  83 S20G28    29.65S
CLARINDA *     CLOUDY    77  70  78 S15G22    29.69F
COUNCIL BLFS * CLOUDY    77  72  83 S18G25    29.61S
CRESTON *      CLOUDY    75 -35   1 S17G26    29.71F
HARLAN  *      CLOUDY    77  70  78 S17G26    29.65F
LAMONI         CLEAR     74  68  81 S8G17     29.74F
6HR MIN TEMP:  74; 6HR MAX TEMP:  81;

RED OAK *      CLOUDY    77  70  78 S16G24    29.64F
SHENANDOAH *   MOCLDY    79  70  73 S16G25    29.64F HX  81
$$

IAZ047>049-059>061-072>074-084-200700-
   CENTRAL IOWA

CITY           SKY/WX    TMP DP  RH WIND       PRES   REMARKS
AMES           PTCLDY    72  68  87 S15       29.68F
6HR MIN TEMP:  72; 6HR MAX TEMP:  78;

ANKENY *       CLEAR     73  66  78 S14       29.70F
BOONE *        PTCLDY    73  66  78 SE14G20   29.67F
CHARITON *     CLEAR     73  66  78 S12       29.74F
DES MOINES     PTCLDY    75  67  76 S16       29.69F
6HR MIN TEMP:  74; 6HR MAX TEMP:  81;

GRINNELL*      CLEAR     70  65  84 SE12G18   29.76F
KNOXVILLE *    CLEAR     73  66  78 S13       29.72F
MARSHALLTOWN   PTCLDY    71  66  84 SE16      29.71F
6HR MIN TEMP:  70; 6HR MAX TEMP:  76;

NEWTON *       CLEAR     70  66  88 SE12      29.74F
PELLA *        CLEAR     73  65  74 SE8G16    29.75F
PERRY *          N/A     74  69  85 S12G18    29.66F
$$

IAZ004>006-015-016-023>025-035-036-200700-
   NORTH CENTRAL IOWA

CITY           SKY/WX    TMP DP  RH WIND       PRES   REMARKS
ALGONA *       CLOUDY    75  68  78 S20G32    29.62S
CLARION *      CLOUDY    75  68  78 S20G30    29.66R
ESTHERVILLE    PTCLDY    74  68  81 S25G35    29.57S
6HR MIN TEMP:  71; 6HR MAX TEMP:  75;

FORT DODGE *   CLOUDY    76  50  40 S20G33    29.63S
MASON CITY     PTCLDY    69  64  84 SE16G29   29.70R
6HR MIN TEMP:  69; 6HR MAX TEMP:  75;

FOREST CITY *    N/A     70  64  83 SE20      29.67R
IOWA FALLS *   CLOUDY    72  66  82 SE16G25   29.71F
$$

IAZ007>011-017>019-026>030-037>042-050>054-066-200700-
   NORTHEAST IOWA

CITY           SKY/WX    TMP DP  RH WIND       PRES   REMARKS
CEDAR RAPIDS   PTCLDY    71  65  81 SE15G24   29.78F
6HR MIN TEMP:  70; 6HR MAX TEMP:  76;

CHARLES CITY * CLEAR     70  66  88 SE13G25   29.74R
CLINTON *      CLEAR     67  64  90 SE15      29.85F
DECORAH *      MOCLDY    68  64  88 SE14G20   29.76S
DUBUQUE        CLEAR     66  63  90 SE13      29.83F
6HR MIN TEMP:  66; 6HR MAX TEMP:  71;

MONTICELLO *   CLEAR     68  64  88 SE13      29.80F
OELWEIN *      CLEAR     68  66  94 SE14G21   29.76F
WATERLOO       CLEAR     70  63  78 SE20G29   29.72F
6HR MIN TEMP:  69; 6HR MAX TEMP:  75;

$$

IAZ064-065-067-068-078-200700-
   EAST CENTRAL IOWA

CITY           SKY/WX    TMP DP  RH WIND       PRES   REMARKS
DAVENPORT      CLEAR     67  63  87 SE8       29.86F
6HR MIN TEMP:  67; 6HR MAX TEMP:  73;

IOWA CITY      MOCLDY    71  65  81 SE8       29.81F
6HR MIN TEMP:  70; 6HR MAX TEMP:  79;

MUSCATINE *    MOCLDY    70  64  83 SE9       29.81F
QUAD CITIES    CLEAR     69  63  81 SE8       29.83F
6HR MIN TEMP:  66; 6HR MAX TEMP:  75;

$$

IAZ062-063-075>077-085>089-095>099-200700-
   SOUTHEAST IOWA

CITY           SKY/WX    TMP DP  RH WIND       PRES   REMARKS
BURLINGTON     CLEAR     71  66  84 SE8       29.82F
6HR MIN TEMP:  71; 6HR MAX TEMP:  77;

FAIRFIELD *    CLEAR     73  64  73 SE13      29.78F
FORT MADISON * CLEAR     73  66  78 SE10G18   29.82F
KEOKUK *       CLEAR     72  66  83 SE8       29.81S
OSKALOOSA *      N/A     70  66  86 SE9       29.77F
OTTUMWA        CLEAR     74  66  76 S12       29.77S
6HR MIN TEMP:  73; 6HR MAX TEMP:  79;

WASHINGTON *   CLEAR     70  68  94 SE10      29.80F
$$

ABBREVIATIONS USED IN REMARKS
   TC - TEMPERATURES IN CELSIUS
  WCI - WIND CHILL INDEX
   HX - HEAT INDEX
  VSB - VISIBILITY
$$





USA.gov is the U.S. government's official web portal to all federal, state and local government web resources and services.